Location: Unspecified
(54.1780°N, 0.0000°E)
Time: 11:52:42
(UTC+00:00)

SR - All Passes

Search period start: 19 June 2019 00:00
Search period end: 29 June 2019 00:00
Orbit: 582 x 874 km, 66.7° (Epoch: 18 June)

Date Brightness Start Highest point End Pass type
(mag) Time Alt. Az. Time Alt. Az. Time Alt. Az.
19 Jun - 03:59:19 10° SSE 04:02:45 24° ESE 04:06:13 10° ENE daylight
19 Jun - 05:40:10 10° SW 05:44:24 62° NW 05:48:48 10° NE daylight
19 Jun - 07:23:53 10° WNW 07:27:17 22° NNW 07:30:48 10° NNE daylight
19 Jun - 09:07:50 10° NW 09:10:52 17° N 09:14:03 10° NE daylight
19 Jun - 10:50:08 10° NNW 10:54:15 31° NNE 10:58:39 10° E daylight
19 Jun - 12:31:59 10° NW 12:36:43 76° SW 12:41:50 10° SSE daylight
19 Jun - 14:15:14 10° WNW 14:18:08 16° WSW 14:21:08 10° SW daylight
20 Jun - 03:11:37 10° SE 03:13:32 13° ESE 03:15:27 10° E daylight
20 Jun - 04:50:30 10° SSW 04:54:44 77° SE 04:59:09 10° NE daylight
20 Jun - 06:33:29 10° W 06:37:14 28° NNW 06:41:08 10° NNE daylight
20 Jun - 08:17:43 10° NW 08:20:41 17° N 08:23:46 10° NE daylight
20 Jun - 10:00:31 10° NNW 10:04:14 24° NNE 10:08:11 10° ENE daylight
20 Jun - 11:42:22 10° NW 11:47:03 67° NE 11:52:07 10° SE daylight
20 Jun - 13:24:47 10° WNW 13:28:50 27° WSW 13:33:08 10° S daylight
21 Jun - 04:01:15 10° S 04:05:14 41° ESE 04:09:22 10° NE daylight
21 Jun - 05:43:15 10° WSW 05:47:18 40° NW 05:51:33 10° NE daylight
21 Jun - 07:27:22 10° WNW 07:30:29 19° NNW 07:33:45 10° NE daylight
21 Jun - 09:10:49 10° NNW 09:14:08 20° NNE 09:17:37 10° ENE daylight
21 Jun - 10:52:48 10° NW 10:57:16 43° NE 11:02:04 10° ESE daylight
21 Jun - 12:34:50 10° NW 12:39:24 47° WSW 12:44:21 10° SSE daylight
22 Jun - 03:12:33 10° SSE 03:15:53 23° ESE 03:19:19 10° ENE daylight
22 Jun - 04:53:16 10° SW 04:57:30 65° NW 05:01:57 10° NE daylight
22 Jun - 06:36:56 10° WNW 06:40:22 22° NNW 06:43:57 10° NNE daylight
22 Jun - 08:20:54 10° NW 08:23:58 18° N 08:27:09 10° NE daylight
22 Jun - 10:03:15 10° NNW 10:07:21 30° NNE 10:11:45 10° E daylight
22 Jun - 11:45:06 10° NW 11:49:51 79° SW 11:55:01 10° SE daylight
22 Jun - 13:28:14 10° WNW 13:31:18 17° WSW 13:34:31 10° SSW daylight
23 Jun - 02:25:01 10° SE 02:26:42 12° ESE 02:28:23 10° E visible
23 Jun - 04:03:38 10° SSW 04:07:52 73° SE 04:12:17 10° NE daylight
23 Jun - 05:46:32 10° W 05:50:19 29° NNW 05:54:17 10° NNE daylight
23 Jun - 07:30:46 10° NW 07:33:46 17° N 07:36:53 10° NE daylight
23 Jun - 09:13:37 10° NNW 09:17:20 23° NNE 09:21:16 10° ENE daylight
23 Jun - 10:55:29 10° NW 11:00:10 65° NE 11:05:16 10° SE daylight
23 Jun - 12:37:50 10° WNW 12:42:00 29° WSW 12:46:25 10° S daylight
24 Jun - 03:14:26 10° S 03:18:22 39° ESE 03:22:29 10° NE daylight
24 Jun - 04:56:19 10° WSW 05:00:24 42° NW 05:04:42 10° NE daylight
24 Jun - 06:40:24 10° WNW 06:43:35 19° NNW 06:46:53 10° NNE daylight
24 Jun - 08:23:54 10° NNW 08:27:13 19° NNE 08:30:43 10° ENE daylight
24 Jun - 10:05:55 10° NW 10:10:23 42° NE 10:15:12 10° ESE daylight
24 Jun - 11:47:56 10° NW 11:52:33 49° WSW 11:57:33 10° SSE daylight
25 Jun - 02:25:48 10° SSE 02:29:03 22° ESE 02:32:23 10° ENE visible
25 Jun - 04:06:22 10° SW 04:10:37 68° NW 04:15:05 10° NE daylight
25 Jun - 05:49:58 10° WNW 05:53:27 23° NNW 05:57:06 10° NNE daylight
25 Jun - 07:33:58 10° NW 07:37:02 18° N 07:40:15 10° NE daylight
25 Jun - 09:16:21 10° NNW 09:20:28 30° NNE 09:24:51 10° E daylight
25 Jun - 10:58:13 10° NW 11:02:59 83° SW 11:08:11 10° SE daylight
25 Jun - 12:41:14 10° WNW 12:44:29 18° WSW 12:47:53 10° SSW daylight
26 Jun - 01:38:28 10° SE 01:39:53 11° ESE 01:41:17 10° E visible
26 Jun - 03:16:46 10° SSW 03:21:00 69° SE 03:25:25 10° NE daylight
26 Jun - 04:59:35 10° W 05:03:25 30° NNW 05:07:27 10° NNE daylight
26 Jun - 06:43:49 10° NW 06:46:50 18° N 06:50:00 10° NE daylight
26 Jun - 08:26:44 10° NNW 08:30:26 23° NNE 08:34:22 10° ENE daylight
26 Jun - 10:08:36 10° NW 10:13:18 62° NE 10:18:25 10° SE daylight
26 Jun - 11:50:55 10° WNW 11:55:09 30° WSW 11:59:41 10° S daylight
27 Jun - 02:27:36 10° S 02:31:31 37° ESE 02:35:36 10° NE visible
27 Jun - 04:09:24 10° WSW 04:13:30 44° NW 04:17:50 10° NE daylight
27 Jun - 05:53:26 10° WNW 05:56:40 19° NNW 06:00:01 10° NE daylight
27 Jun - 07:36:59 10° NW 07:40:18 19° NNE 07:43:48 10° ENE daylight
27 Jun - 09:19:02 10° NW 09:23:30 41° NE 09:28:19 10° ESE daylight
27 Jun - 11:01:02 10° NW 11:05:43 52° WSW 11:10:47 10° SSE daylight
27 Jun - 12:46:24 10° W 12:46:51 10° WSW 12:47:17 10° WSW daylight
28 Jun - 01:39:02 10° SSE 01:42:12 21° ESE 01:45:27 10° ENE visible
28 Jun - 03:19:29 10° SW 03:23:44 72° NW 03:28:14 10° NE daylight
28 Jun - 05:03:00 10° WNW 05:06:32 23° NNW 05:10:14 10° NNE daylight
28 Jun - 06:47:02 10° NW 06:50:07 18° N 06:53:22 10° NE daylight
28 Jun - 08:29:28 10° NNW 08:33:34 29° NNE 08:37:58 10° E daylight
28 Jun - 10:11:20 10° NW 10:16:07 86° SW 10:21:22 10° SE daylight
28 Jun - 11:54:15 10° WNW 11:57:40 19° WSW 12:01:14 10° SSW daylight
